This demonstration page uses our WeatherBlox Daily Observations layout. Learn more.

Left ArrowRight Arrow

39.51506, -84.39828

Hourly Observations for May 29, 2017

Temp ( °F °C ) Dew Point ( °F °C ) Humidity (%) Winds ( mph kmh ) Pressure ( in mb ) Visibility ( mi km ) Precip ( " mm )
12:15 am 00:15 Partly Cloudy 64 18 59 14.8 82 82 SW 7 11 29.83 1010 10 16 0.00 0.00
12:35 am 00:35 Partly Cloudy 64 18 58 14.7 81 81 WSW 3 6 29.83 1010 10 16 0.00 0.00
12:55 am 00:55 Partly Cloudy 63 17.1 57 14 82 82 SSW 3 6 29.83 1010 10 16 0.00 0.00
1:15 am 01:15 Clear 62 16.6 57 13.7 83 83 Calm 29.83 1010 10 16 0.00 0.00
1:35 am 01:35 Clear 62 16.6 57 13.8 84 84 SW 3 6 29.83 1010 10 16 0.00 0.00
1:55 am 01:55 Clear 62 16.6 57 14 85 85 Calm 29.83 1010 10 16 0.00 0.00
2:15 am 02:15 Clear 61 16 56 13.3 84 84 SSW 3 6 29.85 1011 10 16 0.00 0.00
2:35 am 02:35 Clear 61 16.1 56 13.4 84 84 S 5 7 29.85 1011 10 16 0.00 0.00
2:55 am 02:55 Clear 61 16 56 13.4 85 85 S 3 6 29.85 1011 10 16 0.00 0.00
3:15 am 03:15 Clear 60 15.8 56 13.3 85 85 SW 3 6 29.85 1011 7 11 0.00 0.00
3:35 am 03:35 Clear with Mist and Fog 60 15.6 56 13.2 86 86 SSW 3 6 29.83 1010 5 8 0.00 0.00
3:55 am 03:55 Hazy 60 15.3 55 12.9 86 86 SW 3 6 29.83 1010 5 8 0.00 0.00
4:15 am 04:15 Hazy 60 15.3 55 13 86 86 S 3 6 29.83 1010 5 8 0.00 0.00
4:35 am 04:35 Hazy 60 15.3 55 13 86 86 SW 3 6 29.85 1011 4 6 0.00 0.00
4:55 am 04:55 Mostly Cloudy with Haze 60 15.3 55 13 86 86 SSW 3 6 29.85 1011 1 2 0.00 0.00
5:15 am 05:15 Mostly Cloudy with Haze 60 15.3 55 13 86 86 SSW 5 7 29.85 1011 1 1 0.00 0.00
5:35 am 05:35 Mostly Cloudy with Haze 61 16 56 13.5 85 85 SSW 6 9 29.85 1011 2 2 0.00 0.00
5:55 am 05:55 Cloudy with Mist and Fog 61 16 57 13.7 86 86 SW 3 6 29.85 1011 3 5 0.00 0.00
6:15 am 06:15 Cloudy with Mist and Fog 61 16.1 57 13.8 86 86 SSW 5 7 29.88 1012 1 2 0.00 0.00
6:35 am 06:35 Cloudy with Mist and Fog 61 16.3 57 13.9 86 86 WSW 3 6 29.88 1012 1 2 0.00 0.00
6:55 am 06:55 Cloudy with Mist and Fog 62 16.6 58 14.3 86 86 SW 7 11 29.91 1013 1 2 0.00 0.00
7:15 am 07:15 Cloudy with Fog 62 16.6 58 14.5 88 88 SSW 8 13 29.91 1013 0 0 0.00 0.00
7:35 am 07:35 Cloudy with Fog 62 16.6 58 14.5 88 88 SW 7 11 29.91 1013 1 1 0.00 0.00
7:55 am 07:55 Cloudy with Mist and Fog 62 16.8 58 14.6 87 87 SW 5 7 29.91 1013 3 4 0.00 0.00
8:15 am 08:15 Cloudy with Mist and Fog 63 17 58 14.7 86 86 SW 5 7 29.91 1013 4 6 0.00 0.00
8:35 am 08:35 Partly Cloudy 64 18 60 15.8 87 87 SW 5 7 29.91 1013 7 11 0.00 0.00
8:55 am 08:55 Sunny 67 19.5 62 16.8 84 84 SW 6 9 29.91 1013 10 16 0.00 0.00
9:15 am 09:15 Sunny 69 20.8 63 17.2 80 80 SSW 6 9 29.88 1012 10 16 0.00 0.00
9:35 am 09:35 Sunny 69 20.8 62 16.6 77 77 SW 8 13 29.91 1013 10 16 0.00 0.00
9:55 am 09:55 Sunny 71 21.6 63 17.3 77 77 SW 9 15 29.91 1013 10 16 0.00 0.00
10:15 am 10:15 Sunny 73 22.9 65 18.5 76 76 SW 6 9 29.91 1013 10 16 0.00 0.00
10:35 am 10:35 Sunny 74 23.6 65 18.6 74 74 SSW 7 11 29.91 1013 10 16 0.00 0.00
10:55 am 10:55 Sunny 74 23.6 64 17.9 70 70 SW 7 11 29.91 1013 10 16 0.00 0.00
11:15 am 11:15 Sunny 74 23.6 62 16.5 65 65 WSW 6 9 29.91 1013 10 16 0.00 0.00
11:35 am 11:35 Sunny 77 25.1 63 17.3 62 62 SW 10 17 29.91 1013 10 16 0.00 0.00
11:55 am 11:55 Sunny 77 25.1 61 15.9 57 57 SSW 8 13 29.91 1013 10 16 0.00 0.00
12:15 pm 12:15 Sunny 77 25.1 59 15.2 54 54 SSW 8 13 29.91 1013 10 16 0.00 0.00
12:35 pm 12:35 Sunny 79 26.3 58 14.7 49 49 SW 12 19 29.91 1013 10 16 0.00 0.00
12:55 pm 12:55 Partly Cloudy 80 26.4 57 13.9 46 46 SW 14 22 29.91 1013 10 16 0.00 0.00
1:15 pm 13:15 Partly Cloudy 80 26.5 56 13.1 44 44 SW 15 24 29.91 1013 10 16 0.00 0.00
1:35 pm 13:35 Partly Cloudy 80 26.5 56 13.4 44 44 SSW 14 22 29.91 1013 10 16 0.00 0.00
1:55 pm 13:55 Mostly Cloudy 79 26 56 13.1 45 45 SSW 10 17 29.91 1013 10 16 0.00 0.00
2:15 pm 14:15 Mostly Cloudy 80 26.5 53 11.6 39 39 SW 14 22 29.91 1013 10 16 0.00 0.00
2:35 pm 14:35 Mostly Cloudy 80 26.8 54 12 40 40 SW 13 20 29.91 1013 10 16 0.00 0.00
2:55 pm 14:55 Mostly Cloudy 78 25.6 50 10.2 38 38 WSW 9 15 29.91 1013 10 16 0.00 0.00
3:15 pm 15:15 Partly Cloudy 80 26.5 48 9.1 33 33 SW 12 19 29.91 1013 10 16 0.00 0.00
3:35 pm 15:35 Partly Cloudy 81 27.2 50 10 34 34 SW 9 15 29.91 1013 10 16 0.00 0.00
3:55 pm 15:55 Partly Cloudy 80 26.5 46 7.6 30 30 SSW 15 24 29.91 1013 10 16 0.00 0.00
4:15 pm 16:15 Mostly Cloudy 80 26.5 49 9.5 34 34 SW 6 9 29.91 1013 10 16 0.00 0.00
4:35 pm 16:35 Partly Cloudy 80 26.5 48 8.8 33 33 WNW 8 13 29.91 1013 10 16 0.00 0.00
4:55 pm 16:55 Mostly Cloudy 80 26.5 47 8.6 32 32 SW 6 9 29.91 1013 10 16 0.00 0.00
5:15 pm 17:15 Partly Cloudy 81 27 44 6.4 27 27 SSW 10 17 29.85 1011 10 16 0.00 0.00
5:35 pm 17:35 Partly Cloudy 80 26.5 46 7.9 31 31 SW 9 15 29.88 1012 10 16 0.00 0.00
5:55 pm 17:55 Mostly Cloudy 80 26.5 46 7.6 30 30 SW 8 13 29.88 1012 10 16 0.00 0.00
6:15 pm 18:15 Mostly Cloudy 80 26.5 49 9.6 35 35 SW 5 7 29.88 1012 10 16 0.00 0.00
6:35 pm 18:35 Mostly Cloudy 77 25.1 53 11.7 43 43 WSW 3 6 29.88 1012 10 16 0.00 0.00
6:55 pm 18:55 Mostly Cloudy 77 25.1 52 11.1 42 42 SW 5 7 29.88 1012 10 16 0.00 0.00
7:15 pm 19:15 Mostly Cloudy 77 25.1 53 11.8 44 44 SW 5 7 29.88 1012 10 16 0.00 0.00
7:35 pm 19:35 Mostly Cloudy 77 25.1 55 12.8 46 46 Calm 29.88 1012 10 16 0.00 0.00
7:55 pm 19:55 Mostly Cloudy 76 24.6 55 12.8 48 48 SW 3 6 29.88 1012 10 16 0.00 0.00
8:15 pm 20:15 Mostly Cloudy 77 25.1 56 13.1 47 47 SW 3 6 29.88 1012 10 16 0.00 0.00
8:35 pm 20:35 Mostly Cloudy 74 23.6 54 12.2 49 49 SW 3 6 29.88 1012 10 16 0.00 0.00
8:55 pm 20:55 Partly Cloudy 73 22.6 59 14.9 62 62 WSW 3 6 29.91 1013 10 16 0.00 0.00
9:15 pm 21:15 Clear 69 20.8 61 15.9 74 74 S 3 6 29.88 1012 10 16 0.00 0.00
9:35 pm 21:35 Clear 69 20.8 61 15.9 74 74 SW 3 6 29.88 1012 10 16 0.00 0.00
9:55 pm 21:55 Clear 67 19.2 58 14.7 75 75 Calm 29.91 1013 10 16 0.00 0.00
10:15 pm 22:15 Clear 64 18 57 13.7 76 76 Calm 29.91 1013 10 16 0.00 0.00
10:35 pm 22:35 Clear 64 18 58 14.2 79 79 WSW 3 6 29.91 1013 10 16 0.00 0.00
10:55 pm 22:55 Clear 64 17.8 57 13.7 77 77 Calm 29.91 1013 10 16 0.00 0.00
11:15 pm 23:15 Clear 62 16.6 55 13 79 79 SW 3 6 29.91 1013 10 16 0.00 0.00
11:35 pm 23:35 Clear 62 16.6 55 13 79 79 SW 3 6 29.91 1013 10 16 0.00 0.00
11:55 pm 23:55 Clear 61 16 54 12.4 79 79 SW 5 7 29.91 1013 10 16 0.00 0.00

Powered by AerisWeather